| time (UTC) | temp F | wind direction | speed MPH | gust MPH | rain 1hr in | rain 24hr in | rain mn in | humidity % | barometer mb |
| 20260506102004 | 47 | 0 | 0.0 | 0.0 | 0.13 | 0.95 | 0.54 | 93 | 1007.0 |
| 20260506101504 | 47 | 0 | 0.0 | 0.0 | 0.12 | 0.94 | 0.53 | 93 | 1007.0 |
| 20260506101004 | 47 | 0 | 0.0 | 0.0 | 0.10 | 0.92 | 0.51 | 93 | 1006.9 |
| 20260506100504 | 47 | 0 | 0.0 | 0.0 | 0.10 | 0.91 | 0.50 | 93 | 1007.1 |
| 20260506100004 | 47 | 357 | 0.0 | 5.0 | 0.09 | 0.90 | 0.49 | 93 | 1007.1 |
| 20260506095004 | 47 | 358 | 0.0 | 3.0 | 0.06 | 0.87 | 0.46 | 93 | 1006.6 |
| 20260506094004 | 48 | 0 | 0.0 | 0.0 | 0.06 | 0.85 | 0.44 | 93 | 1006.8 |
| 20260506093504 | 48 | 313 | 0.0 | 3.0 | 0.06 | 0.84 | 0.43 | 93 | 1006.8 |
| 20260506093004 | 48 | 318 | 0.0 | 3.0 | 0.06 | 0.83 | 0.42 | 93 | 1006.5 |
| 20260506092504 | 48 | 358 | 0.0 | 1.0 | 0.07 | 0.83 | 0.42 | 93 | 1006.5 |
| 20260506092004 | 48 | 322 | 0.0 | 2.0 | 0.07 | 0.82 | 0.41 | 93 | 1006.4 |
| 20260506091504 | 48 | 308 | 0.0 | 2.0 | 0.08 | 0.82 | 0.41 | 93 | 1006.4 |
| 20260506085504 | 49 | 2 | 0.0 | 6.0 | 0.12 | 0.81 | 0.40 | 93 | 1006.1 |
| 20260506084504 | 49 | 338 | 0.0 | 1.0 | 0.12 | 0.80 | 0.39 | 94 | 1006.3 |
| 20260506084003 | 50 | 0 | 0.0 | 0.0 | 0.12 | 0.79 | 0.38 | 94 | 1006.3 |
| 20260506083503 | 50 | 0 | 0.0 | 0.0 | 0.11 | 0.78 | 0.37 | 94 | 1006.4 |
| 20260506083003 | 50 | 0 | 0.0 | 0.0 | 0.11 | 0.77 | 0.36 | 95 | 1006.3 |
| 20260506082004 | 50 | 0 | 0.0 | 0.0 | 0.11 | 0.75 | 0.34 | 94 | 1006.5 |
| 20260506081503 | 50 | 0 | 0.0 | 0.0 | 0.11 | 0.74 | 0.33 | 94 | 1006.3 |
| 20260506081003 | 50 | 0 | 0.0 | 0.0 | 0.09 | 0.72 | 0.31 | 94 | 1006.2 |
| 20260506073503 | 50 | 0 | 0.0 | 0.0 | 0.09 | 0.67 | 0.26 | 95 | 1006.0 |
| 20260506073003 | 50 | 0 | 0.0 | 0.0 | 0.09 | 0.66 | 0.25 | 95 | 1006.0 |
| 20260506072503 | 50 | 0 | 0.0 | 0.0 | 0.09 | 0.65 | 0.24 | 95 | 1006.0 |
| 20260506072003 | 50 | 20 | 0.0 | 2.0 | 0.09 | 0.64 | 0.23 | 95 | 1006.0 |
| 20260506071503 | 50 | 20 | 0.0 | 2.0 | 0.08 | 0.63 | 0.22 | 95 | 1006.0 |
| 20260506071003 | 50 | 0 | 0.0 | 0.0 | 0.09 | 0.63 | 0.22 | 95 | 1005.9 |
| 20260506062503 | 50 | 0 | 0.0 | 0.0 | 0.07 | 0.56 | 0.15 | 95 | 1006.4 |
| 20260506062003 | 50 | 0 | 0.0 | 0.0 | 0.07 | 0.55 | 0.14 | 95 | 1006.5 |
| 20260506061003 | 51 | 0 | 0.0 | 0.0 | 0.07 | 0.54 | 0.13 | 95 | 1006.6 |
| 20260506060504 | 51 | 0 | 0.0 | 0.0 | 0.07 | 0.54 | 0.13 | 95 | 1006.7 |
| 20260506051003 | 51 | 0 | 0.0 | 0.0 | 0.05 | 0.47 | 0.06 | 94 | 1007.2 |
| 20260506050504 | 51 | 0 | 0.0 | 0.0 | 0.05 | 0.46 | 0.05 | 95 | 1007.3 |
| 20260506045004 | 51 | 0 | 0.0 | 0.0 | 0.04 | 0.45 | 0.04 | 94 | 1007.6 |
| 20260506044503 | 51 | 13 | 0.0 | 1.0 | 0.05 | 0.45 | 0.04 | 94 | 1007.6 |
| 20260506043004 | 52 | 0 | 0.0 | 0.0 | 0.05 | 0.43 | 0.02 | 95 | 1007.8 |
| 20260506042504 | 52 | 0 | 0.0 | 0.0 | 0.07 | 0.43 | 0.02 | 95 | 1007.8 |
| 20260506042004 | 52 | 0 | 0.0 | 0.0 | 0.08 | 0.43 | 0.02 | 95 | 1007.8 |
| 20260506040005 | 52 | 0 | 0.0 | 0.0 | 0.12 | 0.41 | 0.00 | 95 | 1008.0 |
| 20260506035504 | 52 | 0 | 0.0 | 0.0 | 0.12 | 0.41 | 0.41 | 94 | 1007.9 |
| 20260506034503 | 53 | 0 | 0.0 | 0.0 | 0.12 | 0.40 | 0.40 | 94 | 1008.0 |
| 20260506033503 | 54 | 0 | 0.0 | 0.0 | 0.11 | 0.39 | 0.39 | 94 | 1008.3 |
| 20260506033004 | 54 | 0 | 0.0 | 0.0 | 0.10 | 0.38 | 0.38 | 95 | 1008.1 |
| 20260506032503 | 54 | 0 | 0.0 | 0.0 | 0.08 | 0.36 | 0.36 | 94 | 1007.8 |
| 20260506032003 | 54 | 0 | 0.0 | 0.0 | 0.08 | 0.35 | 0.35 | 94 | 1007.6 |
| 20260506031504 | 54 | 0 | 0.0 | 0.0 | 0.07 | 0.34 | 0.34 | 94 | 1007.5 |
| 20260506031004 | 54 | 0 | 0.0 | 0.0 | 0.05 | 0.32 | 0.32 | 94 | 1007.5 |
| 20260506030504 | 54 | 0 | 0.0 | 0.0 | 0.04 | 0.30 | 0.30 | 94 | 1007.5 |
| 20260506030004 | 54 | 0 | 0.0 | 0.0 | 0.04 | 0.29 | 0.29 | 95 | 1007.6 |
| 20260506025504 | 54 | 0 | 0.0 | 0.0 | 0.04 | 0.29 | 0.29 | 94 | 1007.7 |
| 20260506024503 | 54 | 0 | 0.0 | 0.0 | 0.03 | 0.28 | 0.28 | 94 | 1007.6 |
| 20260506024003 | 54 | 0 | 0.0 | 0.0 | 0.04 | 0.28 | 0.28 | 94 | 1007.7 |
| 20260506023503 | 54 | 0 | 0.0 | 0.0 | 0.04 | 0.28 | 0.28 | 94 | 1007.6 |
| 20260506023003 | 54 | 0 | 0.0 | 0.0 | 0.05 | 0.28 | 0.28 | 94 | 1007.8 |
| 20260506022503 | 54 | 0 | 0.0 | 0.0 | 0.05 | 0.28 | 0.28 | 94 | 1007.7 |
| 20260506022003 | 54 | 0 | 0.0 | 0.0 | 0.04 | 0.27 | 0.27 | 94 | 1007.7 |
| 20260506021004 | 54 | 0 | 0.0 | 0.0 | 0.03 | 0.26 | 0.26 | 93 | 1007.7 |
| 20260506020504 | 54 | 0 | 0.0 | 0.0 | 0.03 | 0.26 | 0.26 | 93 | 1007.8 |
| 20260506015504 | 55 | 0 | 0.0 | 0.0 | 0.04 | 0.25 | 0.25 | 93 | 1007.7 |
| 20260506015004 | 55 | 0 | 0.0 | 0.0 | 0.04 | 0.25 | 0.25 | 93 | 1007.6 |
| 20260506014504 | 55 | 0 | 0.0 | 0.0 | 0.05 | 0.25 | 0.25 | 93 | 1007.6 |
| 20260506014003 | 55 | 0 | 0.0 | 0.0 | 0.06 | 0.24 | 0.24 | 93 | 1007.7 |
| 20260506013003 | 55 | 0 | 0.0 | 0.0 | 0.11 | 0.23 | 0.23 | 93 | 1007.6 |
| 20260506012004 | 55 | 0 | 0.0 | 0.0 | 0.18 | 0.23 | 0.23 | 92 | 1007.4 |
| 20260506011504 | 55 | 0 | 0.0 | 0.0 | 0.18 | 0.23 | 0.23 | 92 | 1007.4 |
| 20260506011004 | 55 | 0 | 0.0 | 0.0 | 0.19 | 0.23 | 0.23 | 92 | 1007.3 |
| 20260506010503 | 55 | 0 | 0.0 | 0.0 | 0.21 | 0.23 | 0.23 | 91 | 1007.4 |
| 20260506010003 | 55 | 0 | 0.0 | 0.0 | 0.20 | 0.22 | 0.22 | 91 | 1007.6 |
| 20260506005504 | 56 | 0 | 0.0 | 0.0 | 0.19 | 0.21 | 0.21 | 90 | 1007.5 |
| 20260506004504 | 56 | 334 | 0.0 | 13.0 | 0.17 | 0.19 | 0.19 | 89 | 1007.8 |
| 20260506003503 | 58 | 12 | 0.0 | 3.0 | 0.15 | 0.17 | 0.17 | 89 | 1007.5 |
| 20260506003004 | 59 | 102 | 0.0 | 1.0 | 0.10 | 0.12 | 0.12 | 88 | 1007.8 |
| 20260506002503 | 60 | 284 | 0.0 | 3.0 | 0.03 | 0.05 | 0.05 | 87 | 1007.7 |
| 20260506001504 | 61 | 332 | 0.0 | 5.0 | 0.03 | 0.05 | 0.05 | 87 | 1006.8 |
| 20260506001004 | 61 | 0 | 0.0 | 0.0 | 0.02 | 0.04 | 0.04 | 86 | 1006.8 |
| 20260506000504 | 62 | 0 | 0.0 | 0.0 | 0.00 | 0.02 | 0.02 | 85 | 1007.0 |
| 20260506000004 | 62 | 343 | 0.0 | 1.0 | 0.00 | 0.02 | 0.02 | 84 | 1006.6 |
| 20260505235503 | 62 | 329 | 0.0 | 5.0 | 0.00 | 0.02 | 0.02 | 84 | 1006.6 |
| 20260505235003 | 63 | 321 | 0.0 | 5.0 | 0.00 | 0.02 | 0.02 | 82 | 1006.6 |
| 20260505234503 | 63 | 0 | 0.0 | 0.0 | 0.00 | 0.02 | 0.02 | 81 | 1006.5 |
| 20260505233504 | 64 | 0 | 0.0 | 0.0 | 0.00 | 0.02 | 0.02 | 79 | 1006.6 |
| 20260505233004 | 64 | 0 | 0.0 | 0.0 | 0.00 | 0.02 | 0.02 | 78 | 1006.5 |
| 20260505232504 | 64 | 0 | 0.0 | 0.0 | 0.00 | 0.02 | 0.02 | 77 | 1006.3 |
| 20260505232004 | 64 | 0 | 0.0 | 0.0 | 0.00 | 0.02 | 0.02 | 77 | 1006.5 |
| 20260505231504 | 64 | 0 | 0.0 | 0.0 | 0.00 | 0.02 | 0.02 | 76 | 1006.5 |
| 20260505231003 | 65 | 0 | 0.0 | 0.0 | 0.00 | 0.02 | 0.02 | 75 | 1006.6 |
| 20260505230503 | 65 | 0 | 0.0 | 0.0 | 0.00 | 0.02 | 0.02 | 75 | 1006.3 |
| 20260505230003 | 65 | 0 | 0.0 | 0.0 | 0.00 | 0.02 | 0.02 | 75 | 1006.6 |
| 20260505225504 | 65 | 0 | 0.0 | 0.0 | 0.00 | 0.02 | 0.02 | 75 | 1006.8 |
| 20260505225003 | 65 | 0 | 0.0 | 0.0 | 0.00 | 0.02 | 0.02 | 75 | 1006.9 |
| 20260505224503 | 65 | 0 | 0.0 | 0.0 | 0.00 | 0.02 | 0.02 | 76 | 1006.8 |
| 20260505224004 | 65 | 0 | 0.0 | 0.0 | 0.00 | 0.02 | 0.02 | 75 | 1007.0 |
| 20260505223504 | 65 | 0 | 0.0 | 0.0 | 0.00 | 0.02 | 0.02 | 76 | 1006.9 |
| 20260505223004 | 65 | 0 | 0.0 | 0.0 | 0.00 | 0.02 | 0.02 | 76 | 1006.9 |
| 20260505222504 | 65 | 0 | 0.0 | 0.0 | 0.00 | 0.02 | 0.02 | 77 | 1007.0 |
| 20260505221503 | 65 | 0 | 0.0 | 0.0 | 0.00 | 0.02 | 0.02 | 77 | 1006.9 |
| 20260505221003 | 65 | 0 | 0.0 | 0.0 | 0.00 | 0.02 | 0.02 | 77 | 1006.8 |
| 20260505220503 | 65 | 0 | 0.0 | 0.0 | 0.01 | 0.02 | 0.02 | 76 | 1006.8 |
| 20260505220003 | 64 | 0 | 0.0 | 0.0 | 0.01 | 0.02 | 0.02 | 77 | 1006.8 |
| 20260505215503 | 65 | 0 | 0.0 | 0.0 | 0.01 | 0.02 | 0.02 | 76 | 1006.8 |
| 20260505215003 | 65 | 0 | 0.0 | 0.0 | 0.01 | 0.02 | 0.02 | 75 | 1006.8 |
| 20260505214503 | 64 | 0 | 0.0 | 0.0 | 0.01 | 0.02 | 0.02 | 75 | 1006.8 |
| 20260505214004 | 64 | 0 | 0.0 | 0.0 | 0.01 | 0.02 | 0.02 | 76 | 1006.9 |
| 20260505213504 | 64 | 0 | 0.0 | 0.0 | 0.01 | 0.02 | 0.02 | 76 | 1006.9 |
| 20260505213004 | 64 | 0 | 0.0 | 0.0 | 0.01 | 0.02 | 0.02 | 76 | 1006.9 |
| 20260505212504 | 64 | 0 | 0.0 | 0.0 | 0.01 | 0.02 | 0.02 | 74 | 1006.9 |
| 20260505212003 | 65 | 0 | 0.0 | 0.0 | 0.01 | 0.02 | 0.02 | 74 | 1006.9 |
| 20260505211503 | 65 | 0 | 0.0 | 0.0 | 0.01 | 0.02 | 0.02 | 74 | 1007.0 |
| 20260505211003 | 65 | 0 | 0.0 | 0.0 | 0.01 | 0.02 | 0.02 | 71 | 1007.0 |
| 20260505210503 | 66 | 0 | 0.0 | 0.0 | 0.00 | 0.01 | 0.01 | 71 | 1007.0 |
| 20260505210003 | 66 | 0 | 0.0 | 0.0 | 0.00 | 0.01 | 0.01 | 69 | 1006.8 |
| 20260505205003 | 67 | 0 | 0.0 | 0.0 | 0.00 | 0.01 | 0.01 | 64 | 1006.9 |
| 20260505204503 | 68 | 0 | 0.0 | 0.0 | 0.00 | 0.01 | 0.01 | 60 | 1006.7 |
| 20260505204003 | 69 | 0 | 0.0 | 0.0 | 0.00 | 0.01 | 0.01 | 58 | 1006.5 |
| 20260505203503 | 70 | 0 | 0.0 | 0.0 | 0.00 | 0.01 | 0.01 | 57 | 1006.7 |
| 20260505201003 | 69 | 0 | 0.0 | 0.0 | 0.00 | 0.01 | 0.01 | 56 | 1006.6 |
| 20260505200503 | 69 | 0 | 0.0 | 0.0 | 0.00 | 0.01 | 0.01 | 56 | 1006.6 |
| 20260505200003 | 69 | 0 | 0.0 | 0.0 | 0.00 | 0.01 | 0.01 | 56 | 1006.6 |
| 20260505195003 | 69 | 245 | 0.0 | 10.0 | 0.00 | 0.01 | 0.01 | 55 | 1006.9 |
| 20260505194503 | 69 | 245 | 0.0 | 10.0 | 0.00 | 0.01 | 0.01 | 55 | 1006.9 |
| 20260505194003 | 69 | 280 | 0.0 | 3.0 | 0.00 | 0.01 | 0.01 | 56 | 1007.0 |
| 20260505193503 | 69 | 271 | 0.0 | 3.0 | 0.00 | 0.01 | 0.01 | 56 | 1007.1 |
| 20260505193004 | 69 | 278 | 0.0 | 5.0 | 0.00 | 0.01 | 0.01 | 55 | 1007.2 |
| 20260505192504 | 69 | 274 | 0.0 | 6.0 | 0.00 | 0.01 | 0.01 | 56 | 1007.3 |
| 20260505191003 | 69 | 245 | 0.0 | 10.0 | 0.00 | 0.01 | 0.01 | 55 | 1007.4 |
| 20260505190503 | 69 | 229 | 0.0 | 13.0 | 0.00 | 0.01 | 0.01 | 54 | 1007.4 |
| 20260505190004 | 70 | 259 | 2.0 | 22.0 | 0.00 | 0.01 | 0.01 | 53 | 1007.4 |
| 20260505185503 | 70 | 262 | 1.0 | 22.0 | 0.00 | 0.01 | 0.01 | 53 | 1007.4 |
| 20260505184503 | 70 | 270 | 0.0 | 7.0 | 0.00 | 0.01 | 0.01 | 52 | 1007.2 |
| 20260505184003 | 70 | 268 | 1.0 | 11.0 | 0.00 | 0.01 | 0.01 | 52 | 1007.1 |
| 20260505183504 | 70 | 267 | 1.0 | 16.0 | 0.00 | 0.01 | 0.01 | 52 | 1007.0 |
| 20260505182503 | 71 | 249 | 0.0 | 5.0 | 0.00 | 0.01 | 0.01 | 52 | 1007.0 |
| 20260505182003 | 71 | 271 | 0.0 | 5.0 | 0.00 | 0.01 | 0.01 | 52 | 1006.9 |
| 20260505181503 | 71 | 228 | 0.0 | 12.0 | 0.00 | 0.01 | 0.01 | 53 | 1006.9 |
| 20260505181004 | 71 | 234 | 0.0 | 12.0 | 0.00 | 0.01 | 0.01 | 52 | 1007.0 |
| 20260505180504 | 71 | 289 | 0.0 | 7.0 | 0.00 | 0.01 | 0.01 | 52 | 1007.0 |
| 20260505180004 | 71 | 277 | 0.0 | 9.0 | 0.00 | 0.01 | 0.01 | 52 | 1007.0 |
| 20260505175504 | 71 | 273 | 0.0 | 9.0 | 0.00 | 0.01 | 0.01 | 52 | 1007.0 |
| 20260505175003 | 70 | 280 | 0.0 | 14.0 | 0.00 | 0.01 | 0.01 | 52 | 1007.0 |
| 20260505174503 | 70 | 264 | 1.0 | 14.0 | 0.00 | 0.01 | 0.01 | 53 | 1006.9 |
| 20260505174004 | 70 | 262 | 2.0 | 14.0 | 0.00 | 0.01 | 0.01 | 52 | 1006.9 |
| 20260505173504 | 71 | 263 | 1.0 | 12.0 | 0.00 | 0.01 | 0.01 | 51 | 1006.8 |
| 20260505173004 | 71 | 274 | 0.0 | 13.0 | 0.00 | 0.01 | 0.01 | 51 | 1006.9 |
| 20260505172504 | 71 | 287 | 0.0 | 13.0 | 0.00 | 0.01 | 0.01 | 50 | 1006.8 |
| 20260505172003 | 71 | 253 | 0.0 | 5.0 | 0.00 | 0.01 | 0.01 | 52 | 1006.8 |
| 20260505171003 | 71 | 263 | 2.0 | 18.0 | 0.00 | 0.01 | 0.01 | 53 | 1006.9 |
| 20260505170504 | 72 | 255 | 2.0 | 18.0 | 0.00 | 0.01 | 0.01 | 51 | 1006.9 |
| 20260505170004 | 72 | 253 | 1.0 | 17.0 | 0.00 | 0.01 | 0.01 | 51 | 1006.9 |
| 20260505165504 | 72 | 264 | 1.0 | 17.0 | 0.00 | 0.01 | 0.01 | 52 | 1006.9 |
| 20260505165004 | 71 | 262 | 0.0 | 12.0 | 0.00 | 0.01 | 0.01 | 53 | 1006.8 |
| 20260505164504 | 71 | 253 | 1.0 | 15.0 | 0.00 | 0.01 | 0.01 | 54 | 1006.9 |
| 20260505164003 | 70 | 239 | 2.0 | 15.0 | 0.00 | 0.01 | 0.01 | 54 | 1007.1 |
| 20260505163503 | 70 | 254 | 2.0 | 17.0 | 0.00 | 0.01 | 0.01 | 54 | 1006.9 |
| 20260505162503 | 70 | 252 | 1.0 | 10.0 | 0.00 | 0.01 | 0.01 | 55 | 1006.8 |
| 20260505162003 | 70 | 258 | 1.0 | 14.0 | 0.00 | 0.01 | 0.01 | 55 | 1006.7 |
| 20260505161004 | 70 | 263 | 2.0 | 22.0 | 0.00 | 0.01 | 0.01 | 56 | 1006.8 |
| 20260505160504 | 69 | 261 | 1.0 | 22.0 | 0.00 | 0.01 | 0.01 | 57 | 1006.8 |
| 20260505152504 | 68 | 238 | 1.0 | 17.0 | 0.01 | 0.01 | 0.01 | 61 | 1007.2 |
| 20260505152004 | 68 | 264 | 1.0 | 18.0 | 0.01 | 0.01 | 0.01 | 62 | 1007.2 |
| 20260505151504 | 67 | 270 | 3.0 | 19.0 | 0.01 | 0.01 | 0.01 | 63 | 1007.0 |
| 20260505151004 | 67 | 268 | 2.0 | 19.0 | 0.01 | 0.01 | 0.01 | 62 | 1007.1 |
| 20260505140504 | 64 | 172 | 0.0 | 4.0 | 0.00 | 0.00 | 0.00 | 70 | 1006.8 |
| 20260505125004 | 66 | 193 | 0.0 | 9.0 | 0.00 | 0.00 | 0.00 | 61 | 1006.5 |
| 20260505124503 | 66 | 231 | 0.0 | 7.0 | 0.00 | 0.00 | 0.00 | 61 | 1006.5 |
| 20260505124003 | 66 | 217 | 0.0 | 8.0 | 0.00 | 0.00 | 0.00 | 61 | 1006.6 |
| 20260505123503 | 65 | 199 | 0.0 | 8.0 | 0.00 | 0.00 | 0.00 | 61 | 1006.6 |
| 20260505123003 | 65 | 264 | 0.0 | 7.0 | 0.00 | 0.00 | 0.00 | 62 | 1006.4 |
| 20260505122503 | 65 | 232 | 0.0 | 7.0 | 0.00 | 0.00 | 0.00 | 62 | 1006.6 |
| 20260505122004 | 65 | 223 | 0.0 | 7.0 | 0.00 | 0.00 | 0.00 | 62 | 1006.5 |
| 20260505121504 | 65 | 238 | 0.0 | 8.0 | 0.00 | 0.00 | 0.00 | 62 | 1006.4 |
| 20260505121004 | 65 | 226 | 0.0 | 8.0 | 0.00 | 0.00 | 0.00 | 62 | 1006.5 |
| 20260505120503 | 65 | 169 | 0.0 | 8.0 | 0.00 | 0.00 | 0.00 | 63 | 1006.5 |
| 20260505120004 | 64 | 187 | 0.0 | 8.0 | 0.00 | 0.00 | 0.00 | 63 | 1006.6 |
| 20260505115503 | 64 | 258 | 0.0 | 6.0 | 0.00 | 0.00 | 0.00 | 63 | 1006.5 |
| 20260505115003 | 64 | 202 | 0.0 | 7.0 | 0.00 | 0.00 | 0.00 | 64 | 1006.4 |
| 20260505114503 | 64 | 204 | 0.0 | 7.0 | 0.00 | 0.00 | 0.00 | 63 | 1006.4 |
| 20260505114003 | 64 | 235 | 0.0 | 1.0 | 0.00 | 0.00 | 0.00 | 64 | 1006.3 |
| 20260505113504 | 64 | 0 | 0.0 | 0.0 | 0.00 | 0.00 | 0.00 | 64 | 1006.4 |
| 20260505113004 | 64 | 142 | 0.0 | 6.0 | 0.00 | 0.00 | 0.00 | 64 | 1006.4 |
| 20260505112503 | 64 | 142 | 0.0 | 6.0 | 0.00 | 0.00 | 0.00 | 64 | 1006.3 |
| 20260505112003 | 64 | 0 | 0.0 | 0.0 | 0.00 | 0.00 | 0.00 | 64 | 1006.2 |
| 20260505111503 | 64 | 0 | 0.0 | 0.0 | 0.00 | 0.00 | 0.00 | 63 | 1006.2 |
| 20260505110503 | 64 | 241 | 0.0 | 1.0 | 0.00 | 0.00 | 0.00 | 63 | 1006.1 |